Regional Weather Roundup
Issued by NWS Albany, NY

Home | Current Version | Previous Version | Text Only | Print | Product List | Glossary On
Versions: 1 2 3 4 5 6 7 8 9 10 11 12 13 14 15 16 17 18 19 20 21 22 23 24 25 26 27 28 29 30 31 32 33 34 35 36 37 38 39 40 41 42 43 44 45 46 47 48 49 50
000
ASUS41 KALY 080410
RWRALY

NEW YORK STATE HOURLY WEATHER ROUNDUP
NATIONAL WEATHER SERVICE ALBANY NY
1100 PM EST SUN FEB 07 2016

NOTE: "FAIR" INDICATES FEW OR NO CLOUDS BELOW 12,000 FEET WITH NO
SIGNIFICANT WEATHER AND/OR NO OBSTRUCTIONS TO VISIBILITY.

NYZ032-033-038>043-046>054-057>066-NYZ062>081-080500-
EAST


CITY           SKY/WX    TMP DP  RH WIND       PRES   REMARKS
ALBANY         CLOUDY    30  22  72 N3        30.02F
GLENS FALLS    CLOUDY    26  19  74 NE5       30.04F WCI  20
POUGHKEEPSIE   CLOUDY    31  21  66 CALM      29.96F HAZE
NEWBURGH       PTCLDY    36  21  55 VRB6      29.96F WCI  31
MONTGOMERY     CLOUDY    28  22  78 N6        29.94F WCI  22
WHITE PLAINS   CLOUDY    37  21  52 E10       29.93F WCI  30
ISLIP          CLOUDY    38  30  73 NE14      29.91F WCI  30
NEW YORK CITY  CLOUDY    40  31  70 NE17      29.93F WCI  31
CENTRAL PARK   CLOUDY    40  27  59 NE14G21   29.94F WCI  32
$$

NYZ005>009-017-018-044>046-055-056-080500-
CENTRAL


CITY           SKY/WX    TMP DP  RH WIND       PRES   REMARKS
FULTON         CLOUDY    37  23  56 E6        29.92F WCI  32
SYRACUSE       CLOUDY    30  24  78 E7        29.93F WCI  23
ROME           CLOUDY    31  22  69 SE8       29.97F WCI  23
ELMIRA         CLOUDY    26  22  84 CALM      29.90F
BINGHAMTON     CLOUDY    31  20  63 SE8       29.88F WCI  23
MONTICELLO     CLOUDY    30  19  64 NE5       29.93F WCI  25
$$

NYZ026>034-041>043-080500-
NORTH


CITY           SKY/WX    TMP DP  RH WIND       PRES   REMARKS
WATERTOWN      CLOUDY    27  22  81 NE8       29.96F WCI  19
FORT DRUM      NOT AVBL
MASSENA        CLOUDY    17   4  56 NE21      30.08F WCI   0
SARANAC LAKE   CLOUDY    18  15  88 NE6       29.95F WCI  10
PLATTSBURGH    CLOUDY    17   5  59 N5        30.12F WCI  10
$$

NYZ001>004-010>016-019>021-080500-
WEST


CITY           SKY/WX    TMP DP  RH WIND       PRES   REMARKS
NIAGARA FALLS  CLOUDY    42  26  53 S7        29.82F
BUFFALO        CLOUDY    42  26  53 S8        29.83F
DUNKIRK        PTCLDY    43  26  51 S15       29.82F
JAMESTOWN      CLOUDY    36  21  55 S5        29.81F WCI  32
WELLSVILLE     CLOUDY    36  23  59 S3        29.84F
ROCHESTER      PTCLDY    35  25  66 SE3       29.87F
PENN YAN       CLOUDY    31  25  78 CALM      29.88F
$$

             KEY
       WCI = WIND CHILL INDEX
       VSB = VISIBILITY
       HX  = HEAT INDEX
$$



USA.gov is the U.S. government's official web portal to all federal, state and local government web resources and services.